Wind_Speed
3 2 2 3 4 5 6 7 9 10 11 13 16 18 21 24 26 28 30 31 34 35 37 39 41 42 44 45 46 46 47 47 47 47 47 47 46 46 47 47 47 46 45 45
5 5 5 5 6 6 7 9 10 12 13 15 17 19 21 24 26 29 31 33 34 36 38 39 41 43 44 45 46 47 47 48 47 47 47 47 47 47 46 46 46 45 45 45
7 7 8 8 9 10 11 12 13 14 16 18 19 21 23 25 27 29 31 33 35 37 39 41 42 43 44 45 46 47 47 48 48 47 47 47 47 47 47 46 46 45 45 45
9 10 10 11 12 13 13 14 16 17 19 21 22 24 26 28 30 32 33 35 37 39 40 42 43 44 45 46 46 47 47 48 48 48 48 48 47 47 47 46 46 46 45 45
9 10 11 12 13 14 16 17 19 20 22 24 25 27 29 31 32 34 35 37 38 40 41 42 43 44 45 46 47 47 47 47 47 47 47 47 47 47 47 47 46 46 45 45
9 11 12 12 14 16 17 18 20 22 24 26 27 29 31 33 34 36 37 39 40 41 42 43 44 45 45 46 46 47 47 47 47 47 46 46 46 46 46 46 45 45 44 44
8 9 10 13 15 16 18 19 21 23 25 27 28 30 32 34 36 38 39 40 41 42 43 44 45 46 46 46 47 47 47 47 47 47 46 46 46 45 45 45 44 44 44 43
7 9 10 13 15 16 18 20 22 24 26 28 30 32 33 35 37 38 40 41 42 43 44 45 45 46 46 46 46 46 46 46 46 46 46 46 45 45 44 44 44 43 42 41
8 9 11 13 15 17 20 22 24 26 28 30 32 34 36 38 39 41 42 42 43 44 44 45 46 46 46 46 46 46 46 46 45 45 45 45 45 44 44 44 43 42 41 41
10 11 13 15 17 19 21 23 26 28 30 32 34 36 37 39 41 43 45 46 46 47 47 47 47 47 46 46 46 46 46 46 46 45 44 44 44 44 43 43 42 42 41 40
13 14 16 17 19 21 23 25 27 29 32 34 36 38 39 41 42 44 46 48 48 49 49 49 48 48 47 46 46 45 45 44 45 45 45 44 43 43 42 42 42 41 40 40
16 18 19 20 22 24 26 28 30 32 34 36 38 39 41 42 43 45 46 47 49 49 49 49 49 49 48 48 47 46 45 44 43 43 43 43 43 42 42 42 41 41 40 40
19 21 22 23 25 27 29 31 33 35 36 38 40 42 43 44 45 46 47 48 49 50 50 49 49 49 49 49 48 46 45 44 43 42 41 41 41 41 41 41 41 41 40 39
22 24 25 26 28 30 32 34 36 37 39 41 43 44 46 47 47 48 48 48 48 48 48 48 48 47 48 48 48 47 46 45 43 43 42 41 41 41 41 41 40 40 39 39
25 27 28 30 32 34 36 38 39 41 43 44 45 46 46 46 46 46 46 45 45 46 46 46 47 47 47 47 48 47 46 45 44 43 43 42 41 40 40 40 40 40 40 39
29 30 32 34 36 38 40 42 43 44 45 46 46 46 46 46 45 44 44 44 44 44 45 45 45 44 45 46 45 45 45 45 44 44 43 42 42 41 40 40 39 39 38 38
31 33 35 37 40 41 43 45 46 46 46 47 47 46 46 45 44 44 44 44 43 42 43 42 42 42 42 43 43 43 43 43 43 43 43 42 42 41 40 39 38 38 37 37
35 37 39 41 43 44 45 47 47 47 47 47 46 45 45 45 44 43 43 41 40 40 40 40 39 39 39 39 40 40 41 42 42 42 42 42 41 41 40 39 38 37 37 37
38 40 43 44 46 47 48 49 49 49 48 47 46 45 44 44 43 42 41 40 38 37 36 36 36 35 34 34 35 36 37 39 40 40 41 41 41 40 40 39 38 36 35 35
41 43 45 47 48 49 50 51 51 50 49 47 46 44 44 43 42 41 39 37 36 34 33 32 31 31 31 31 30 31 33 35 36 37 38 39 39 39 38 38 37 36 35 34
44 46 47 48 49 51 52 52 52 51 49 47 46 44 43 42 41 39 37 35 34 33 32 30 29 28 27 27 28 29 30 31 33 34 35 36 37 37 37 37 37 36 35 34
45 47 48 49 51 52 53 54 53 51 49 47 46 45 43 41 39 38 36 35 33 32 31 30 28 26 25 25 26 27 28 29 31 32 33 34 35 36 36 36 35 34 34 33
47 48 49 51 52 54 55 55 54 52 50 48 47 45 43 41 39 36 34 33 32 30 29 27 26 24 23 23 23 24 25 26 28 30 31 32 33 34 34 34 34 33 33 32
48 49 51 53 54 56 56 56 55 53 51 49 47 45 42 39 37 35 33 32 30 28 27 25 23 21 21 20 21 21 22 24 26 27 29 29 30 31 32 32 32 32 32 32
49 51 53 54 56 58 58 56 54 52 51 49 46 44 41 38 35 33 31 29 27 26 24 22 21 20 18 18 18 19 20 21 23 25 26 27 28 29 30 31 31 31 30 30
51 53 55 57 58 59 58 56 54 52 50 47 44 42 39 37 34 32 29 27 25 22 20 19 18 17 17 16 16 18 19 19 21 22 24 25 26 27 28 29 29 30 29 28
53 55 56 59 60 59 58 56 54 52 49 46 42 40 37 34 32 29 27 25 22 20 18 17 16 15 15 15 15 16 18 18 19 20 22 23 24 25 26 27 27 27 27 27
Wind_Direction
214 220 213 218 233 236 234 234 233 233 236 240 241 241 242 243 243 243 245 246 246 245 246 247 248 250 251 252 254 255 255 256 257 258 259 260 261 262 264 265 267 268 270 271
236 239 241 245 253 254 252 248 243 242 243 245 246 247 248 248 248 248 249 248 248 247 248 249 250 251 252 253 254 255 256 257 258 258 259 260 261 262 263 265 266 268 269 271
247 252 253 255 259 261 261 259 257 256 254 253 253 253 253 253 254 254 254 253 252 252 252 252 252 253 253 254 255 256 256 257 258 258 259 260 260 261 263 265 266 267 269 271
251 257 261 261 262 264 263 263 263 262 261 261 259 258 259 258 259 259 259 258 258 257 257 256 256 255 255 256 256 257 257 258 258 259 259 259 260 261 262 264 265 267 268 270
260 260 259 264 265 266 266 267 268 267 267 266 266 265 263 263 263 263 262 262 261 261 260 260 260 259 259 258 258 258 258 259 259 259 260 260 260 261 262 263 264 266 267 269
270 270 269 269 271 271 272 273 273 272 270 270 269 268 267 266 266 266 266 265 264 264 263 262 262 262 261 261 260 260 259 259 259 259 259 260 260 260 261 262 264 265 267 268
284 281 278 277 277 278 277 278 276 275 275 274 274 273 271 270 269 269 269 268 267 267 266 265 264 263 263 262 262 262 261 261 260 260 260 260 260 260 261 261 263 264 266 267
304 296 288 285 284 283 282 282 282 282 281 280 279 277 276 274 273 272 272 271 270 269 269 268 267 265 265 264 263 262 262 261 260 260 260 259 259 259 259 260 261 262 263 265
318 309 301 294 291 289 289 288 288 287 286 285 284 282 280 278 276 274 273 272 271 271 270 270 269 268 266 265 264 263 262 261 260 259 259 258 257 258 258 259 260 261 262 264
318 312 306 303 300 297 296 295 294 292 290 289 287 286 284 282 279 277 274 273 272 272 271 271 271 269 268 266 264 263 262 261 260 259 257 256 256 256 257 257 258 259 260 262
318 315 311 308 305 303 301 300 298 296 295 293 291 289 288 286 282 279 277 274 273 272 272 271 270 269 268 266 265 263 261 260 259 258 256 255 255 255 255 255 256 257 258 260
316 315 312 310 308 306 304 302 301 299 297 296 295 293 292 290 287 284 281 277 274 273 273 271 270 269 268 266 264 263 261 259 258 257 256 254 253 253 253 253 254 255 256 258
316 315 313 311 309 308 307 306 305 303 301 299 298 296 295 293 290 287 283 280 276 275 273 272 270 269 267 266 264 262 260 258 256 255 254 253 252 252 252 252 253 254 255 256
318 317 315 314 313 312 310 309 308 306 304 303 302 300 297 295 292 290 287 283 280 278 276 274 272 270 268 265 263 261 258 256 255 253 252 252 252 251 251 251 252 252 253 254
319 318 317 317 316 314 313 312 311 309 307 305 304 302 301 299 297 294 291 286 283 281 279 277 274 272 269 265 262 260 257 255 254 252 251 250 250 250 250 250 251 251 251 252
319 319 319 318 317 316 315 314 313 311 309 308 307 305 303 302 300 297 294 290 286 283 280 278 276 274 270 266 262 259 255 253 251 251 250 250 248 248 248 248 249 249 249 250
320 321 320 320 319 318 317 316 315 314 312 311 310 308 306 305 303 301 298 294 289 286 283 280 277 275 272 267 262 258 253 251 249 248 248 248 247 246 247 247 247 248 248 249
321 321 321 320 320 320 319 318 318 317 316 314 313 311 309 308 306 304 301 297 293 289 286 284 281 277 273 268 262 258 253 250 248 247 246 245 245 245 245 247 247 247 247 248
321 321 321 322 322 321 321 321 321 320 318 317 315 313 312 311 309 307 304 302 297 292 289 286 284 280 274 268 262 257 252 248 246 245 244 243 243 243 244 245 245 245 246 247
321 322 322 323 323 323 323 323 323 322 320 318 317 315 315 313 310 309 307 304 300 296 292 289 286 281 274 267 261 256 253 248 244 243 242 240 240 240 241 241 243 244 245 246
322 323 323 324 324 325 325 324 324 323 321 319 318 318 317 314 312 310 308 306 302 297 294 292 288 282 275 267 260 255 253 248 243 241 240 238 238 238 238 239 241 242 243 245
323 324 324 325 326 326 326 326 325 324 322 320 320 320 318 315 312 310 309 307 305 300 296 293 289 283 276 268 261 255 251 247 242 239 238 237 237 236 236 237 239 240 242 243
324 325 325 326 327 327 327 327 326 325 323 322 321 319 317 315 313 311 309 307 304 302 298 293 289 284 278 271 262 254 250 245 241 239 237 236 236 236 235 235 236 238 240 241
324 325 326 327 328 328 328 327 326 325 324 322 321 319 318 316 315 312 310 308 305 302 299 293 288 283 277 270 261 253 248 244 241 237 235 234 235 234 234 234 235 237 239 241
325 325 326 327 328 328 328 327 327 325 324 323 321 319 318 318 316 314 312 309 306 303 298 293 287 282 275 269 261 253 247 243 240 236 234 234 234 233 233 233 233 235 237 239
325 326 327 327 328 328 328 328 327 326 325 323 321 319 318 317 316 315 312 310 307 303 298 294 288 281 275 269 259 250 244 241 239 236 235 233 233 233 232 232 232 233 236 238
325 326 327 328 329 329 329 329 328 328 327 325 323 321 319 316 315 314 311 308 305 302 298 293 286 280 274 267 260 250 242 240 237 235 233 231 231 231 231 231 232 233 236 238
Height
5613 5614 5615 5616 5618 5619 5621 5622 5624 5626 5628 5629 5631 5632 5634 5636 5638 5639 5641 5642 5644 5646 5647 5649 5651 5652 5654 5655 5657 5658 5660 5662 5663 5665 5666 5667 5668 5670 5671 5671 5672 5673 5673 5674
5613 5614 5615 5616 5617 5619 5620 5621 5622 5624 5625 5626 5627 5628 5629 5630 5631 5632 5634 5635 5636 5637 5638 5639 5641 5642 5643 5644 5646 5647 5649 5650 5651 5653 5654 5655 5657 5658 5659 5660 5661 5662 5662 5662
5613 5614 5615 5616 5617 5617 5618 5619 5620 5621 5623 5622 5623 5623 5624 5625 5625 5626 5626 5627 5627 5628 5629 5630 5630 5631 5633 5634 5635 5636 5637 5638 5640 5641 5642 5644 5645 5646 5647 5648 5649 5650 5651 5651
5612 5613 5614 5616 5614 5615 5615 5616 5616 5617 5617 5617 5618 5618 5618 5618 5618 5618 5618 5618 5618 5618 5618 5619 5620 5620 5621 5622 5623 5624 5625 5626 5627 5628 5630 5631 5633 5634 5635 5637 5638 5639 5639 5640
5610 5610 5611 5612 5612 5611 5612 5612 5612 5612 5612 5612 5611 5611 5611 5610 5610 5609 5609 5608 5608 5607 5607 5607 5608 5608 5609 5609 5610 5611 5612 5613 5614 5616 5617 5619 5620 5621 5623 5624 5626 5627 5628 5628
5608 5608 5609 5610 5609 5608 5609 5608 5608 5606 5606 5605 5604 5604 5603 5601 5600 5599 5598 5597 5597 5596 5595 5595 5595 5595 5596 5596 5597 5598 5599 5600 5601 5603 5604 5606 5607 5609 5610 5612 5613 5614 5615 5616
5605 5605 5606 5606 5605 5605 5605 5605 5602 5600 5599 5598 5596 5596 5594 5592 5590 5589 5587 5586 5585 5584 5583 5582 5582 5582 5583 5583 5583 5584 5585 5586 5588 5589 5591 5592 5594 5596 5597 5599 5600 5602 5603 5604
5603 5603 5605 5601 5600 5600 5600 5597 5596 5594 5592 5590 5588 5586 5584 5582 5579 5577 5575 5574 5572 5571 5570 5569 5568 5569 5569 5569 5570 5570 5571 5572 5574 5575 5577 5579 5581 5583 5584 5586 5588 5590 5591 5592
5602 5603 5599 5597 5596 5595 5593 5591 5589 5587 5584 5582 5579 5576 5573 5571 5568 5566 5563 5561 5559 5558 5557 5556 5555 5554 5555 5555 5555 5556 5557 5558 5560 5561 5563 5565 5567 5569 5571 5573 5575 5577 5579 5580
5599 5598 5596 5593 5591 5589 5587 5584 5582 5579 5576 5573 5569 5566 5562 5559 5555 5552 5549 5547 5546 5544 5543 5542 5540 5539 5540 5540 5541 5541 5543 5544 5545 5547 5549 5551 5553 5556 5558 5560 5562 5564 5566 5568
5596 5594 5592 5589 5587 5584 5581 5577 5574 5571 5567 5562 5558 5554 5550 5546 5542 5538 5534 5532 5530 5529 5528 5526 5525 5525 5524 5525 5525 5527 5528 5529 5531 5533 5535 5537 5539 5542 5544 5547 5549 5552 5554 5556
5594 5591 5588 5585 5581 5578 5574 5570 5566 5562 5557 5552 5547 5542 5537 5532 5527 5523 5519 5515 5514 5512 5511 5510 5509 5509 5508 5508 5510 5511 5513 5515 5516 5518 5520 5523 5526 5529 5531 5534 5536 5539 5541 5544
5589 5586 5582 5579 5575 5571 5567 5562 5557 5552 5547 5541 5536 5530 5524 5519 5513 5508 5503 5499 5497 5496 5494 5492 5492 5491 5491 5491 5493 5495 5497 5500 5502 5504 5507 5509 5512 5515 5518 5521 5523 5526 5529 5531
5584 5580 5577 5573 5568 5564 5558 5553 5548 5542 5535 5529 5523 5517 5510 5504 5498 5492 5487 5483 5481 5479 5477 5475 5474 5473 5473 5474 5475 5478 5481 5484 5487 5489 5492 5495 5498 5501 5504 5508 5511 5513 5516 5518
5579 5575 5571 5566 5561 5555 5549 5543 5537 5531 5524 5517 5510 5503 5496 5489 5483 5477 5472 5467 5464 5462 5459 5457 5456 5455 5455 5456 5457 5460 5463 5467 5471 5474 5477 5481 5484 5488 5491 5494 5498 5501 5504 5506
5573 5568 5563 5558 5552 5546 5540 5533 5526 5519 5511 5504 5496 5489 5482 5475 5469 5463 5457 5452 5449 5446 5443 5441 5439 5438 5437 5438 5439 5442 5446 5450 5454 5458 5462 5466 5470 5474 5478 5481 5485 5488 5491 5494
5566 5561 5555 5549 5543 5536 5529 5522 5514 5506 5498 5491 5483 5476 5469 5462 5455 5449 5443 5438 5433 5430 5427 5424 5423 5421 5420 5420 5422 5425 5429 5433 5437 5442 5447 5451 5456 5460 5465 5468 5472 5475 5479 5481
5559 5553 5547 5541 5534 5527 5519 5510 5502 5494 5486 5478 5470 5463 5455 5448 5442 5436 5430 5424 5419 5415 5411 5409 5407 5405 5404 5404 5406 5409 5413 5417 5422 5427 5432 5437 5442 5446 5451 5455 5459 5463 5466 5469
5551 5545 5538 5531 5523 5515 5507 5499 5490 5482 5473 5465 5458 5450 5443 5436 5429 5423 5417 5411 5406 5402 5399 5395 5393 5391 5390 5390 5392 5394 5398 5402 5407 5412 5417 5422 5428 5433 5438 5442 5446 5450 5454 5457
5543 5536 5529 5521 5513 5505 5496 5487 5479 5470 5461 5453 5446 5438 5431 5424 5417 5411 5405 5399 5394 5390 5387 5384 5381 5379 5378 5378 5380 5382 5385 5389 5393 5398 5403 5408 5414 5420 5425 5430 5434 5438 5442 5446
5535 5527 5519 5511 5503 5494 5485 5476 5467 5459 5450 5441 5434 5427 5420 5413 5406 5399 5394 5389 5384 5379 5376 5373 5371 5369 5368 5368 5369 5371 5374 5377 5381 5386 5391 5396 5401 5407 5412 5417 5422 5427 5431 5434
5526 5518 5510 5502 5493 5484 5474 5465 5456 5447 5438 5430 5423 5416 5409 5402 5395 5389 5384 5379 5374 5370 5367 5364 5361 5360 5359 5358 5359 5361 5363 5366 5370 5375 5380 5385 5390 5395 5401 5406 5411 5415 5420 5423
5517 5509 5501 5492 5483 5474 5464 5454 5445 5436 5427 5419 5412 5404 5397 5390 5384 5379 5375 5370 5365 5361 5358 5355 5353 5351 5350 5350 5351 5352 5354 5357 5361 5365 5370 5375 5380 5385 5390 5395 5400 5405 5409 5413
5508 5500 5491 5483 5473 5464 5454 5444 5434 5425 5416 5408 5400 5393 5386 5380 5374 5369 5364 5360 5356 5352 5349 5347 5345 5344 5343 5343 5343 5345 5347 5349 5353 5357 5361 5366 5371 5376 5380 5385 5390 5395 5399 5403
5499 5491 5482 5473 5464 5454 5444 5434 5424 5415 5406 5398 5389 5382 5375 5369 5365 5360 5355 5351 5347 5344 5342 5340 5338 5337 5337 5337 5337 5339 5341 5343 5346 5350 5354 5358 5363 5367 5372 5376 5381 5385 5390 5394
5490 5481 5472 5463 5454 5444 5433 5423 5414 5405 5396 5388 5380 5372 5366 5360 5355 5351 5347 5343 5340 5337 5335 5334 5333 5332 5332 5332 5332 5333 5335 5338 5341 5344 5348 5351 5355 5359 5364 5368 5372 5377 5381 5385
5481 5472 5463 5453 5443 5432 5422 5413 5404 5395 5386 5378 5371 5364 5357 5352 5347 5343 5339 5336 5333 5332 5330 5329 5328 5327 5327 5327 5328 5329 5331 5333 5336 5338 5342 5345 5349 5353 5357 5361 5365 5369 5373 5377